Location: Franzen
(48.6167°N, 15.3833°E)
Time: 23:15:43
(UTC+00:00)

Cosmos 2219 - Pass Details

Date: 01 August 2021
Orbit: 834 x 859 km, 71.1° (Epoch: 22 September)

Event Time Altitude Azimuth Distance (km) Brightness Sun altitude
Exits shadow 23:43:01 32° 248° (WSW) 1,433 4.1 -23.1°
Maximum altitude 23:45:22 51° 304° (NW) 1,076 3.8 -23.0°
Drops below altitude 10° 23:50:59 10° 21° (NNE) 2,506 6.8 -22.8°
Sets 23:53:32 0° 26° (NNE) 3,446 7.7 -22.7°
